CZ-4C DEB

Last updated on Fri Feb 25 2022 00:02:02 GMT+0000 (Coordinated Universal Time)

1 51286U 22007C 22055.46274574 .01346576 00000+0 12401+0 0 9994 2 51286 97.7699 63.4540 0078417 122.2951 238.5893 14.89318125 4332

Satellite not in orbit